TimeAKST,TemperatureF,Dew PointF,Humidity,Sea Level PressureIn,VisibilityMPH,Wind Direction,Wind SpeedMPH,Gust SpeedMPH,PrecipitationIn,Events,Conditions,WindDirDegrees,DateUTC
12:25 AM,-25.6,-29.2,83,30.02,1.0,ENE,21.9,-,N/A,,Mist,60,2013-02-25 09:25:00
12:53 AM,-25.1,-29.9,78,30.03,1.5,ENE,19.6,-,N/A,,Haze,60,2013-02-25 09:53:00
1:17 AM,-25.6,-29.2,83,30.03,2.0,ENE,16.1,-,N/A,,Mostly Cloudy,60,2013-02-25 10:17:00
1:53 AM,-24.0,-29.0,77,30.03,1.5,ENE,16.1,-,N/A,,Haze,60,2013-02-25 10:53:00
3:53 AM,-24.0,-27.9,82,30.04,1.2,ENE,19.6,-,N/A,,Overcast,60,2013-02-25 12:53:00
4:53 AM,-24.0,-29.0,77,30.04,1.0,ENE,18.4,-,N/A,,Haze,60,2013-02-25 13:53:00
5:53 AM,-24.0,-29.0,77,30.05,1.8,NE,18.4,-,N/A,,Haze,50,2013-02-25 14:53:00
6:02 AM,-23.8,-29.2,76,30.04,2.0,NE,17.3,-,N/A,,Haze,50,2013-02-25 15:02:00
6:18 AM,-23.8,-29.2,76,30.03,1.5,NE,18.4,-,N/A,,Haze,50,2013-02-25 15:18:00
6:53 AM,-24.0,-29.0,77,30.04,1.8,NE,17.3,-,N/A,,Haze,50,2013-02-25 15:53:00
7:53 AM,-23.1,-27.9,78,30.04,1.5,NE,17.3,-,N/A,,Haze,50,2013-02-25 16:53:00
8:53 AM,-23.1,-27.9,78,30.04,0.8,ENE,18.4,-,N/A,,Haze,60,2013-02-25 17:53:00
9:53 AM,-22.0,-27.0,77,30.05,0.8,ENE,21.9,-,N/A,,Haze,60,2013-02-25 18:53:00
10:53 AM,-22.0,-26.0,82,30.05,0.5,ENE,20.7,-,N/A,Fog,Light Freezing Fog,60,2013-02-25 19:53:00
11:53 AM,-22.0,-26.0,82,30.06,0.5,ENE,20.7,-,N/A,Fog,Light Freezing Fog,60,2013-02-25 20:53:00
12:53 PM,-22.0,-26.0,82,30.06,0.5,ENE,21.9,-,N/A,Fog,Light Freezing Fog,60,2013-02-25 21:53:00
1:53 PM,-20.9,-26.0,77,30.06,0.5,ENE,21.9,-,N/A,,Haze,60,2013-02-25 22:53:00
2:53 PM,-20.9,-25.1,81,30.06,0.5,ENE,20.7,-,N/A,Fog,Light Freezing Fog,60,2013-02-25 23:53:00
3:53 PM,-20.9,-25.1,81,30.06,0.8,ENE,18.4,-,N/A,,Mist,60,2013-02-26 00:53:00
4:53 PM,-20.9,-26.0,77,30.07,0.5,ENE,19.6,-,N/A,,Haze,60,2013-02-26 01:53:00
5:39 PM,-20.2,-25.6,76,30.06,1.0,ENE,17.3,-,N/A,,Haze,60,2013-02-26 02:39:00
5:53 PM,-20.9,-26.0,77,30.07,1.0,ENE,16.1,-,N/A,,Haze,60,2013-02-26 02:53:00
6:37 PM,-22.0,-25.6,83,30.06,2.0,ENE,17.3,-,N/A,,Overcast,60,2013-02-26 03:37:00
6:53 PM,-22.0,-26.0,82,30.07,2.5,ENE,16.1,-,N/A,,Overcast,60,2013-02-26 03:53:00
7:53 PM,-22.0,-26.0,82,30.07,2.0,ENE,15.0,-,N/A,,Overcast,60,2013-02-26 04:53:00
8:53 PM,-20.9,-26.0,77,30.06,2.5,ENE,15.0,-,N/A,,Haze,60,2013-02-26 05:53:00
9:53 PM,-18.9,-23.1,81,30.07,2.5,ENE,18.4,-,N/A,,Overcast,70,2013-02-26 06:53:00
10:53 PM,-18.0,-22.0,82,30.07,2.0,ENE,15.0,-,N/A,,Overcast,70,2013-02-26 07:53:00
11:53 PM,-17.0,-22.0,78,30.08,2.5,East,15.0,-,N/A,,Haze,80,2013-02-26 08:53:00